Regional Weather Roundup
Issued by NWS

Home | Current Version | Previous Version | Text Only | Print | Product List | Glossary Off
Versions: 1 2 3 4 5 6 7 8 9 10 11 12 13 14 15 16 17 18 19 20 21 22 23 24 25 26 27 28 29 30 31 32 33 34 35 36 37 38 39 40 41 42 43 44 45 46 47 48 49 50

531
ASUS43 KMPX 272010
RWRMN
WEATHER ROUNDUP FOR MINNESOTA
NATIONAL WEATHER SERVICE TWIN CITIES/CHANHASSEN MN
300 PM CDT SAT MAY 27 2017


NOTE: "FAIR" INDICATES FEW OR NO CLOUDS BELOW 12,000 FEET WITH NO
SIGNIFICANT WEATHER AND/OR OBSTRUCTIONS TO VISIBILITY. N/A MEANS
CURRENT SKY AND/OR WEATHER CONDITIONS ARE NOT AVAILABLE.

MNZ060>063-068>070-272100-
   Twin Cities Metro

CITY           SKY/WX    TMP DP  RH WIND       PRES   REMARKS
TWIN CITIES    CLOUDY    69  48  47 W8        29.89F
ST PAUL        PTSUNNY   69  47  45 W8        29.89F
CRYSTAL        CLOUDY    70  43  37 W3        29.87F
BLAINE         PTSUNNY   72  43  35 W6        29.88F
LAKEVILLE      CLOUDY    63  52  67 S8        29.91R
EDEN PRAIRIE   CLOUDY    68  48  48 SW7       29.89S
SOUTH ST PAUL  CLOUDY    66  53  61 SW8       29.89R
LAKE ELMO      FAIR      68  46  45 NW6       29.89F
$$
MNZ001>005-007-008-013>017-022>024-027-028-272100-
   Northwest Minnesota

CITY           SKY/WX    TMP DP  RH WIND       PRES   REMARKS
BEMIDJI        PTSUNNY   74  38  27 W17G24    29.78F
HALLOCK        MOSUNNY   72  32  23 W16       29.71S
ROSEAU         SUNNY     73  37  27 W14G22    29.72S
WARROAD        CLOUDY    70  46  43 W12G20    29.72S
CROOKSTON      PTSUNNY   73  39  29 W16       29.75F
FOSSTON        CLOUDY    72  36  26 W13G20    29.79S
DETROIT LAKES  PTSUNNY   72  37  28 W10       29.82F
MOORHEAD       MOSUNNY   75  34  22 W16G25    29.78F
PARK RAPIDS    PTSUNNY   73  37  27 SW12      29.81F
MAHNOMEN       MOCLDY    73  35  24 W13G18    29.78F
$$
MNZ006-009>011-018-025>026-272100-
   North Central Minnesota

CITY           SKY/WX    TMP DP  RH WIND       PRES   REMARKS
BAUDETTE       CLOUDY    71  38  29 W15G21    29.73S
FLAG ISLAND    LGT RAIN  63  46  55 SW14      29.70S
INTL FALLS     CLOUDY    72  37  28 W9        29.75S
WASKISH        CLOUDY    72  43  35 SW14      29.77S
BIG FORK       SUNNY     73  37  27 SW8G18    29.78S
LONGVILLE      CLOUDY    70  41  35 SW7       29.82S
GRAND RAPIDS   CLOUDY    73  41  31 SW9G20    29.83S
CRANE LAKE     MOSUNNY   72  36  26 SW5       29.78F
ORR            MOSUNNY   73  34  23 W8        29.76S
COOK           MOSUNNY   72  39  30 W10       29.80S
WALKER         MOCLDY    72  38  29 SW16      29.80F
$$
MNZ012-019>021-037-272100-
   Northeast Minnesota

CITY           SKY/WX    TMP DP  RH WIND       PRES   REMARKS
DULUTH         CLOUDY    73  41  31 W15G24    29.84S
ELY            MOSUNNY   70  39  32 W8        29.81S
HIBBING        MOSUNNY   73  39  29 W8G20     29.81F
EVELETH        SUNNY     73  30  20 W5        29.82F
DULUTH HARBOR  CLOUDY    73  45  35 SW15      29.83S
TWO HARBORS    CLOUDY    75  46  35 NW9G21    29.81S
SILVER BAY     CLOUDY    72  45  37 S10G18    29.80F
GRAND MARAIS     N/A     51  44  77 SW10      29.82S
G MARAIS ARPRT MOSUNNY   64  39  39 S7        29.84S
$$
MNZ029>031-032-039>041-046>048-054>057-064-272100-
   West Central Minnesota

CITY           SKY/WX    TMP DP  RH WIND       PRES   REMARKS
FERGUS FALLS   CLOUDY    72  39  30 W13       29.80S
WHEATON        CLOUDY    73  36  25 SW14      29.85F
MORRIS         CLOUDY    75  45  33 S9        29.85F
ALEXANDRIA     CLOUDY    68  41  37 S9        29.87F
ELBOW LAKE     FAIR      73  42  33 SW10      29.84F
WADENA         CLOUDY    72  43  35 SW14      29.83F
GLENWOOD       CLOUDY    68  46  45 S13       29.88F
APPLETON       CLOUDY    72  39  30 NW6       29.86F
BENSON         CLOUDY    72  43  35 W5        29.88F
ORTONVILLE     CLOUDY    73  37  27 W8        29.86F
MADISON        CLOUDY    73  43  33 W8        29.87F
WILLMAR        FAIR      73  41  31 W10       29.89F
$$
MNZ033>034-036-042>043-049>051-058-059-272100-
   Central Minnesota

CITY           SKY/WX    TMP DP  RH WIND       PRES   REMARKS
ST CLOUD       PTSUNNY   71  44  37 SW9G17    29.87F
SAUK CENTRE    CLOUDY    68  44  42 SW9       29.87F
PAYNESVILLE    PTSUNNY   71  39  31 S10       29.89F
AITKIN         CLOUDY    70  45  40 S10       29.83S
PINE RIVER     CLOUDY    72  45  37 SW8G18    29.86F
BRAINERD       CLOUDY    72  41  32 SW9       29.84F
STAPLES        LGT RAIN  68  39  34 S10       29.84S
LONG PRAIRIE   CLOUDY    66  43  42 S12       29.87F
LITTLE FALLS   CLOUDY    72  37  28 SW8       29.86F
LITCHFIELD     CLOUDY    72  48  43 CALM      29.89F
BUFFALO        CLOUDY    69  44  39 SW5       29.90S
MAPLE LAKE     CLOUDY    72  49  44 SW6       29.90S
HUTCHINSON     MOSUNNY   70  47  43 SW6       29.90F
$$
MNZ037-044-045-052-053-272100-
   East Central Minnesota

CITY           SKY/WX    TMP DP  RH WIND       PRES   REMARKS
PRINCETON      CLOUDY    72  46  40 S7        29.88F
MORA           CLOUDY    70  43  37 SW9       29.89F
CAMBRIDGE      CLOUDY    73  52  46 SW7       29.86F
RUSH CITY      CLOUDY    70  44  39 S3        29.88F
MOOSE LAKE     CLOUDY    73  45  35 W7G20     29.84F
HINCKLEY       FAIR      72  46  40 S9        29.87F
CLOQUET        CLOUDY    72  34  25 SW7       29.84F
MCGREGOR       MOSUNNY   70  43  37 S9G16     29.85F
$$
MNZ071>073-080-081-089-090-097-098-272100-
   Southwest Minnesota

CITY           SKY/WX    TMP DP  RH WIND       PRES   REMARKS
MONTEVIDEO     PTSUNNY   75  43  31 SW6       29.87F
CANBY          CLOUDY    71  47  42 CALM      29.89F
MARSHALL       CLOUDY    71  42  35 S12       29.90F
REDWOOD FALLS  CLOUDY    72  38  29 S3        29.89F
OLIVIA         CLOUDY    70  43  37 S7G16     29.89S
PIPESTONE      PTSUNNY   68  43  40 W6        29.93S
WINDOM         PTSUNNY   66  50  55 SW9       29.93F
WORTHINGTON    CLOUDY    63  49  60 SW10      29.95F
JACKSON        CLOUDY    63  52  67 W8        29.95S
TRACY          CLOUDY    70  41  34 CALM      29.91F
SLAYTON        CLOUDY    67  47  48 SW8       29.93F
$$
MNZ065>067-074>077-082>085-091>093-272100-
   South Central Minnesota

CITY           SKY/WX    TMP DP  RH WIND       PRES   REMARKS
MANKATO        CLOUDY    66  43  43 S7        29.93S
NEW ULM        CLOUDY    66  50  55 SW10      29.91F
ST JAMES       CLOUDY    66  46  48 S6        29.94S
FAIRMONT       CLOUDY    65  47  52 CALM      29.93F
GLENCOE        CLOUDY    71  50  48 SW3       29.90F
FARIBAULT      CLOUDY    66  46  48 SW3       29.93S
OWATONNA       LGT RAIN  66  45  45 W6        29.94R
WASECA         CLOUDY    64  45  48 E3        29.94F
ALBERT LEA     LGT RAIN  70  48  46 N3        29.93F
$$
MNZ078>079-086>088-094>096-272100-
   Southeast Minnesota

CITY           SKY/WX    TMP DP  RH WIND       PRES   REMARKS
ROCHESTER      CLOUDY    68  48  48 N6        29.92F
RED WING       CLOUDY    66  46  48 SW3       29.89F
STANTON        CLOUDY    66  44  44 S5        29.91S
DODGE CENTER   CLOUDY    66  46  48 NW8       29.93R
WINONA         PTSUNNY   70  48  46 N6        29.89F
AUSTIN         CLOUDY    66  46  48 NW6       29.92S
PRESTON        CLOUDY    67  46  46 NW8       29.91F
$$
ABBREVIATIONS USED IN REMARKS
   TC - TEMPERATURES IN CELSIUS
  WCI - WIND CHILL INDEX
   HX - HEAT INDEX
  VSB - VISIBILITY
$$




USA.gov is the U.S. government's official web portal to all federal, state and local government web resources and services.